GW3864 Weather Reports


Display with metric or nautical units.
time (UTC)temp
F
wind
direction
speed
MPH
gust
MPH
rain 1hr
in
rain 24hr
in
rain mn
in
humidity
%
barometer
mb
20260506204625 74 190 5.0 6.0 0.00 0.00 0.00 49 1010.7
20260506204121 75 207 4.0 6.0 0.00 0.00 0.00 47 1010.4
20260506203619 74 330 6.0 8.0 0.00 0.00 0.00 46 1010.8
20260506203116 75 67 1.0 1.0 0.00 0.00 0.00 49 1010.6
20260506202614 74 194 3.0 3.0 0.00 0.00 0.00 50 1010.8
20260506202109 74 327 6.0 8.0 0.00 0.00 0.00 47 1011.1
20260506201607 73 174 1.0 3.0 0.00 0.00 0.00 47 1010.8
20260506201103 73 21 1.0 2.0 0.00 0.00 0.00 47 1010.8
20260506200600 74 248 2.0 4.0 0.00 0.00 0.00 44 1011.0
20260506200056 72 141 5.0 8.0 0.00 0.00 0.00 48 1010.6
20260506195553 73 103 1.0 1.0 0.00 0.00 0.00 47 1010.8
20260506195049 72 214 5.0 7.0 0.00 0.00 0.00 47 1010.8
20260506194548 73 196 2.0 2.0 0.00 0.00 0.00 46 1010.6
20260506194043 72 157 3.0 6.0 0.00 0.00 0.00 50 1011.0
20260506193541 72 122 5.0 6.0 0.00 0.00 0.00 50 1010.8
20260506193038 72 231 6.0 8.0 0.00 0.00 0.00 49 1011.4
20260506192535 70 140 3.0 4.0 0.00 0.00 0.00 51 1011.3
20260506192031 71 171 3.0 4.0 0.00 0.00 0.00 53 1011.4
20260506191528 72 187 4.0 4.0 0.00 0.00 0.00 50 1011.2
20260506191024 72 206 3.0 4.0 0.00 0.00 0.00 49 1011.3
20260506190521 71 199 5.0 9.0 0.00 0.00 0.00 50 1011.7
20260506190019 70 108 4.0 4.0 0.00 0.00 0.00 51 1011.7
20260506185515 70 147 4.0 6.0 0.00 0.00 0.00 53 1011.6
20260506185012 69 110 3.0 4.0 0.00 0.00 0.00 51 1011.5
20260506184509 69 192 5.0 8.0 0.00 0.00 0.00 50 1011.6
20260506184006 69 152 3.0 4.0 0.00 0.00 0.00 49 1011.7
20260506183501 69 179 1.0 1.0 0.00 0.00 0.00 48 1011.5
20260506182953 68 113 1.0 2.0 0.00 0.00 0.00 49 1011.6
20260506182450 69 219 6.0 8.0 0.00 0.00 0.00 47 1011.5
20260506181948 67 123 5.0 7.0 0.00 0.00 0.00 49 1011.6
20260506181446 67 137 3.0 3.0 0.00 0.00 0.00 47 1011.5
20260506180942 69 214 3.0 3.0 0.00 0.00 0.00 45 1011.6
20260506180438 67 63 0.0 0.0 0.00 0.00 0.00 46 1011.7
20260506175935 67 30 2.0 3.0 0.00 0.00 0.00 46 1011.6
20260506175432 66 146 2.0 2.0 0.00 0.00 0.00 49 1011.6
20260506174928 67 175 6.0 8.0 0.00 0.00 0.00 48 1011.6
20260506174427 67 110 2.0 4.0 0.00 0.00 0.00 46 1012.1
20260506173923 68 133 3.0 3.0 0.00 0.00 0.00 47 1011.9
20260506173420 68 132 0.0 1.0 0.00 0.00 0.00 46 1011.9
20260506172917 65 141 5.0 7.0 0.00 0.00 0.00 49 1011.7
20260506172414 65 143 3.0 3.0 0.00 0.00 0.00 47 1011.9
20260506171911 64 176 3.0 3.0 0.00 0.00 0.00 47 1012.0
20260506171408 65 139 2.0 2.0 0.00 0.00 0.00 47 1012.0
20260506170906 65 123 2.0 3.0 0.00 0.00 0.00 47 1012.0
20260506170401 65 129 1.0 1.0 0.00 0.00 0.00 49 1012.1
20260506165900 64 84 0.0 0.0 0.00 0.00 0.00 49 1012.0
20260506165358 64 136 0.0 1.0 0.00 0.00 0.00 50 1012.1
20260506164849 64 129 2.0 2.0 0.00 0.00 0.00 50 1012.2
20260506164346 62 87 0.0 0.0 0.00 0.00 0.00 47 1012.2
20260506163844 62 157 2.0 3.0 0.00 0.00 0.00 47 1012.2
20260506163338 62 100 0.0 0.0 0.00 0.00 0.00 47 1012.4
20260506162833 62 74 0.0 0.0 0.00 0.00 0.00 45 1012.4
20260506162331 60 165 2.0 2.0 0.00 0.00 0.00 49 1012.0
20260506161823 59 135 3.0 3.0 0.00 0.00 0.00 50 1012.4
20260506161320 60 77 0.0 0.0 0.00 0.00 0.00 47 1012.1
20260506160818 59 121 2.0 3.0 0.00 0.00 0.00 49 1012.2
20260506160314 59 92 0.0 0.0 0.00 0.00 0.00 47 1012.4
20260506155813 59 75 0.0 0.0 0.00 0.00 0.00 47 1012.2
20260506155309 59 75 0.0 1.0 0.00 0.00 0.00 48 1012.5
20260506153421 58 49 2.0 2.0 0.00 0.00 0.00 47 1012.2
20260506152919 58 127 1.0 2.0 0.00 0.00 0.00 48 1012.0
20260506152416 57 71 0.0 0.0 0.00 0.00 0.00 47 1012.6
20260506151915 57 89 1.0 1.0 0.00 0.00 0.00 48 1012.4
20260506151411 56 122 0.0 1.0 0.00 0.00 0.00 50 1012.2
20260506150909 56 142 2.0 3.0 0.00 0.00 0.00 51 1012.4
20260506150404 55 151 2.0 2.0 0.00 0.00 0.00 52 1012.1
20260506145902 56 126 2.0 3.0 0.00 0.00 0.00 51 1012.1
20260506145358 57 146 2.0 3.0 0.00 0.00 0.00 51 1012.4
20260506144855 56 131 1.0 2.0 0.00 0.00 0.00 50 1012.2
20260506144352 55 73 0.0 0.0 0.00 0.00 0.00 51 1012.2
20260506143850 55 127 1.0 2.0 0.00 0.00 0.00 53 1012.1
20260506143347 55 136 1.0 1.0 0.00 0.00 0.00 52 1012.0
20260506142845 54 128 1.0 2.0 0.00 0.00 0.00 55 1012.5
20260506142343 52 95 0.0 0.0 0.00 0.00 0.00 57 1012.0
20260506141841 51 110 0.0 0.0 0.00 0.00 0.00 69 1012.2
20260506141339 51 132 0.0 0.0 0.00 0.00 0.00 71 1012.0
20260506140836 50 58 0.0 0.0 0.00 0.00 0.00 68 1012.1
20260506140333 48 301 0.0 0.0 0.00 0.00 0.00 77 1012.4
20260506135830 48 299 0.0 0.0 0.00 0.00 0.00 78 1012.2
20260506135327 48 299 1.0 1.0 0.00 0.00 0.00 76 1012.1
20260506134823 47 219 0.0 1.0 0.00 0.00 0.00 78 1012.2
20260506134319 46 218 0.0 1.0 0.00 0.00 0.00 79 1012.4
20260506133817 46 13 1.0 1.0 0.00 0.00 0.00 78 1012.2
20260506133313 46 263 1.0 1.0 0.00 0.00 0.00 79 1012.4
20260506132810 45 229 1.0 1.0 0.00 0.00 0.00 78 1012.1
20260506132307 44 335 1.0 1.0 0.00 0.00 0.00 80 1012.1
20260506131805 44 244 1.0 1.0 0.00 0.00 0.00 81 1012.0
20260506131301 44 285 1.0 2.0 0.00 0.00 0.00 79 1012.1
20260506130758 44 295 1.0 1.0 0.00 0.00 0.00 81 1011.9
20260506130255 44 272 0.0 1.0 0.00 0.00 0.00 80 1012.0
20260506125753 44 248 1.0 1.0 0.00 0.00 0.00 80 1012.0
20260506125251 44 288 0.0 0.0 0.00 0.00 0.00 79 1011.8
20260506124749 43 288 1.0 1.0 0.00 0.00 0.00 79 1011.9
20260506124246 44 288 1.0 1.0 0.00 0.00 0.00 79 1011.7
20260506123743 44 278 1.0 1.0 0.00 0.00 0.00 79 1011.8
20260506123242 44 299 1.0 1.0 0.00 0.00 0.00 79 1011.7
20260506122738 44 276 0.0 0.0 0.00 0.00 0.00 78 1011.9
20260506122236 44 265 0.0 0.0 0.00 0.00 0.00 78 1011.6
20260506121734 44 275 1.0 2.0 0.00 0.00 0.00 77 1011.7
20260506121230 44 342 1.0 1.0 0.00 0.00 0.00 76 1011.6
20260506120727 44 238 1.0 1.0 0.00 0.00 0.00 77 1011.6
20260506120225 44 299 1.0 1.0 0.00 0.00 0.00 77 1011.6
20260506115723 44 299 1.0 1.0 0.00 0.00 0.00 76 1011.6
20260506115221 44 295 2.0 3.0 0.00 0.00 0.00 76 1011.4
20260506114718 44 320 1.0 1.0 0.00 0.00 0.00 77 1011.6
20260506114216 44 249 1.0 2.0 0.00 0.00 0.00 77 1011.5
20260506113714 44 279 1.0 2.0 0.00 0.00 0.00 76 1011.4
20260506113211 44 241 0.0 0.0 0.00 0.00 0.00 77 1011.4
20260506112707 45 317 1.0 1.0 0.00 0.00 0.00 78 1011.7
20260506112205 45 294 0.0 0.0 0.00 0.00 0.00 77 1011.5
20260506111702 45 226 1.0 1.0 0.00 0.00 0.00 74 1011.7
20260506111201 45 268 0.0 0.0 0.00 0.00 0.00 76 1011.5
20260506110657 45 241 1.0 1.0 0.00 0.00 0.00 75 1011.6
20260506110155 45 311 1.0 1.0 0.00 0.00 0.00 76 1011.4
20260506105651 45 321 2.0 2.0 0.00 0.00 0.00 76 1011.7
20260506105148 45 299 1.0 1.0 0.00 0.00 0.00 77 1011.5
20260506104646 45 269 1.0 2.0 0.00 0.00 0.00 77 1011.7
20260506104143 45 306 0.0 1.0 0.00 0.00 0.00 74 1011.5
20260506103641 45 335 1.0 1.0 0.00 0.00 0.00 74 1011.5
20260506103137 45 297 1.0 1.0 0.00 0.00 0.00 77 1011.5
20260506102636 45 286 0.0 1.0 0.00 0.00 0.00 78 1011.3
20260506102133 45 289 1.0 1.0 0.00 0.00 0.00 77 1011.4
20260506101629 45 297 1.0 1.0 0.00 0.00 0.00 77 1011.7
20260506101126 45 279 1.0 1.0 0.00 0.00 0.00 77 1011.6
20260506100625 45 298 0.0 0.0 0.00 0.00 0.00 76 1011.5
20260506100122 45 221 1.0 1.0 0.00 0.00 0.00 76 1011.6
20260506095621 45 313 1.0 1.0 0.00 0.00 0.00 77 1011.6
20260506095117 45 283 1.0 1.0 0.00 0.00 0.00 76 1011.4
20260506094615 45 326 1.0 1.0 0.00 0.00 0.00 78 1011.6
20260506094112 45 225 1.0 1.0 0.00 0.00 0.00 78 1011.6
20260506093611 45 314 1.0 2.0 0.00 0.00 0.00 78 1011.6
20260506093108 45 259 1.0 1.0 0.00 0.00 0.00 78 1011.7
20260506092605 46 289 1.0 1.0 0.00 0.00 0.00 78 1011.4
20260506092102 46 296 2.0 2.0 0.00 0.00 0.00 77 1011.4
20260506091600 46 297 0.0 1.0 0.00 0.00 0.00 77 1011.4
20260506091057 46 327 0.0 1.0 0.00 0.00 0.00 77 1011.5
20260506090555 46 290 1.0 2.0 0.00 0.00 0.00 76 1011.5
20260506090051 46 285 1.0 1.0 0.00 0.00 0.00 78 1011.4
20260506085548 46 286 0.0 1.0 0.00 0.00 0.00 77 1011.5
20260506085044 46 305 0.0 1.0 0.00 0.00 0.00 79 1011.5
20260506084542 46 277 1.0 1.0 0.00 0.00 0.00 78 1011.7
20260506084037 46 334 1.0 1.0 0.00 0.00 0.00 77 1011.7
20260506083535 46 337 0.0 1.0 0.00 0.00 0.00 77 1011.5
20260506083032 46 258 1.0 1.0 0.00 0.00 0.00 77 1011.6
20260506082529 46 259 1.0 2.0 0.00 0.00 0.00 77 1011.4
20260506082024 46 261 1.0 2.0 0.00 0.00 0.00 78 1011.4
20260506081523 46 290 1.0 1.0 0.00 0.00 0.00 77 1011.2
20260506081020 46 264 1.0 1.0 0.00 0.00 0.00 78 1011.4
20260506080518 46 282 1.0 1.0 0.00 0.00 0.00 78 1011.2
20260506073501 47 263 1.0 1.0 0.00 0.00 0.00 77 1011.2
20260506072958 47 264 0.0 0.0 0.00 0.00 0.00 77 1011.4
20260506072455 47 264 1.0 1.0 0.00 0.00 0.00 77 1011.2
20260506071953 47 264 0.0 0.0 0.00 0.00 0.00 76 1011.3
20260506071451 47 264 0.0 1.0 0.00 0.00 0.00 75 1011.1
20260506070947 47 263 1.0 1.0 0.00 0.00 0.00 77 1011.1
20260506070444 47 263 0.0 0.0 0.00 0.00 0.00 76 1011.2
20260506062422 48 258 0.0 0.0 0.00 0.00 0.00 75 1010.8
20260506061918 48 258 1.0 1.0 0.00 0.00 0.00 74 1010.8
20260506061415 48 258 0.0 1.0 0.00 0.00 0.00 74 1010.8
20260506060913 48 258 0.0 1.0 0.00 0.00 0.00 74 1010.8
20260506060410 49 258 0.0 1.0 0.00 0.00 0.00 73 1010.7
20260506051342 50 252 1.0 1.0 0.00 0.00 0.00 73 1010.2
20260506050840 50 252 1.0 1.0 0.00 0.00 0.00 74 1010.2
20260506050337 50 252 1.0 1.0 0.00 0.00 0.00 74 1010.4
20260506044827 50 251 1.0 1.0 0.00 0.00 0.00 71 1010.3
20260506044325 50 250 1.0 1.0 0.00 0.00 0.00 72 1010.3
20260506043822 51 251 2.0 2.0 0.00 0.00 0.00 70 1010.2
20260506043320 51 253 1.0 1.0 0.00 0.00 0.00 70 1010.1
20260506042818 51 243 1.0 1.0 0.00 0.00 0.00 71 1009.9
20260506042317 51 239 1.0 1.0 0.00 0.00 0.00 71 1010.1
20260506041815 51 250 1.0 1.0 0.00 0.00 0.00 70 1010.0
20260506041311 51 248 1.0 1.0 0.00 0.00 0.00 71 1010.1
20260506040809 52 255 1.0 1.0 0.00 0.00 0.00 71 1009.9
20260506040306 52 255 1.0 1.0 0.00 0.00 0.00 69 1009.9
20260506035802 52 255 1.0 1.0 0.00 0.00 0.00 69 1009.8
20260506035259 52 251 1.0 1.0 0.00 0.00 0.00 70 1010.0
20260506034756 52 261 0.0 0.0 0.00 0.00 0.00 69 1009.8
20260506034254 53 264 1.0 1.0 0.00 0.00 0.00 68 1009.9
20260506033750 53 264 1.0 1.0 0.00 0.00 0.00 68 1009.9
20260506033247 53 265 1.0 1.0 0.00 0.00 0.00 69 1009.7
20260506032744 54 265 1.0 1.0 0.00 0.00 0.00 68 1009.8
20260506032241 54 247 1.0 1.0 0.00 0.00 0.00 67 1009.8
20260506031738 55 259 2.0 2.0 0.00 0.00 0.00 65 1009.7
20260506031235 55 253 1.0 2.0 0.00 0.00 0.00 64 1009.7
20260506030733 55 232 0.0 1.0 0.00 0.00 0.00 63 1009.8
20260506030230 56 256 1.0 1.0 0.00 0.00 0.00 63 1009.5
20260506025722 57 251 0.0 1.0 0.00 0.00 0.00 62 1009.7
20260506025218 57 251 1.0 1.0 0.00 0.00 0.00 59 1009.5
20260506024715 58 235 2.0 2.0 0.00 0.00 0.00 59 1009.7
20260506024212 58 210 1.0 1.0 0.00 0.00 0.00 57 1009.6
20260506023708 59 173 1.0 1.0 0.00 0.00 0.00 57 1009.5
20260506023205 60 171 1.0 1.0 0.00 0.00 0.00 56 1009.7
20260506022702 60 168 1.0 1.0 0.00 0.00 0.00 54 1009.7
20260506022200 61 168 1.0 1.0 0.00 0.00 0.00 51 1009.6
20260506021657 62 142 0.0 1.0 0.00 0.00 0.00 53 1009.8
20260506021154 63 130 0.0 0.0 0.00 0.00 0.00 52 1009.6
20260506020651 65 130 0.0 0.0 0.00 0.00 0.00 50 1009.6
20260506020149 68 130 0.0 0.0 0.00 0.00 0.00 45 1009.5
20260506015646 68 131 0.0 0.0 0.00 0.00 0.00 43 1009.3
20260506015144 68 131 0.0 0.0 0.00 0.00 0.00 41 1009.3
20260506014641 69 117 0.0 0.0 0.00 0.00 0.00 35 1009.6
20260506014136 69 78 0.0 0.0 0.00 0.00 0.00 34 1009.7
20260506013635 68 145 0.0 1.0 0.00 0.00 0.00 36 1009.6
20260506013131 69 140 1.0 1.0 0.00 0.00 0.00 33 1009.5
20260506012627 69 104 2.0 2.0 0.00 0.00 0.00 35 1009.7
20260506012124 69 92 0.0 0.0 0.00 0.00 0.00 33 1009.6
20260506011622 69 81 0.0 1.0 0.00 0.00 0.00 33 1009.7
20260506011117 69 106 1.0 1.0 0.00 0.00 0.00 32 1009.7
20260506010611 69 171 4.0 4.0 0.00 0.00 0.00 33 1009.5
20260506010108 69 178 3.0 3.0 0.00 0.00 0.00 31 1009.8
20260506005605 69 107 3.0 4.0 0.00 0.00 0.00 31 1009.3
20260506005101 70 95 0.0 0.0 0.00 0.00 0.00 34 1009.7
20260506004558 70 87 0.0 0.0 0.00 0.00 0.00 32 1009.8
20260506004055 70 79 0.0 0.0 0.00 0.00 0.00 33 1009.5
20260506003551 70 87 0.0 0.0 0.00 0.00 0.00 34 1009.8
20260506003048 69 87 1.0 1.0 0.00 0.00 0.00 31 1009.5
20260506002543 70 99 1.0 1.0 0.00 0.00 0.00 31 1009.7
20260506002039 70 95 2.0 3.0 0.00 0.00 0.00 33 1009.7
20260506001536 71 90 1.0 1.0 0.00 0.00 0.00 32 1009.6
20260506001033 71 103 1.0 2.0 0.00 0.00 0.00 31 1009.5
20260506000531 71 74 0.0 0.0 0.00 0.00 0.00 34 1009.9
20260506000028 71 127 2.0 3.0 0.00 0.00 0.00 31 1009.8
20260505235521 71 29 8.0 9.0 0.00 0.00 0.00 31 1009.9
20260505235017 71 133 4.0 6.0 0.00 0.00 0.00 34 1010.1
20260505234514 71 142 4.0 6.0 0.00 0.00 0.00 32 1010.0
20260505234011 71 139 4.0 4.0 0.00 0.00 0.00 30 1010.1
20260505233508 71 342 1.0 1.0 0.00 0.00 0.00 31 1010.1
20260505233006 72 81 1.0 2.0 0.00 0.00 0.00 33 1010.2
20260505232503 72 104 0.0 1.0 0.00 0.00 0.00 33 1010.0
20260505232001 72 192 3.0 3.0 0.00 0.00 0.00 30 1010.1
20260505231457 71 178 5.0 6.0 0.00 0.00 0.00 31 1010.0
20260505230956 71 66 2.0 3.0 0.00 0.00 0.00 33 1010.3
20260505230453 72 16 3.0 3.0 0.00 0.00 0.00 31 1010.2
20260505225949 72 92 0.0 0.0 0.00 0.00 0.00 30 1010.4
20260505225446 72 16 4.0 6.0 0.00 0.00 0.00 31 1010.3
20260505224942 73 1 2.0 4.0 0.00 0.00 0.00 29 1010.3
20260505224439 73 97 0.0 0.0 0.00 0.00 0.00 32 1010.5
20260505223937 72 80 1.0 2.0 0.00 0.00 0.00 33 1010.4
20260505223433 71 95 1.0 1.0 0.00 0.00 0.00 34 1010.6
20260505222930 71 106 4.0 6.0 0.00 0.00 0.00 34 1010.5
20260505222426 71 178 4.0 4.0 0.00 0.00 0.00 32 1010.6
20260505221922 72 87 0.0 0.0 0.00 0.00 0.00 33 1011.0
20260505221420 73 137 3.0 3.0 0.00 0.00 0.00 32 1010.6
20260505220917 71 137 2.0 2.0 0.00 0.00 0.00 31 1010.7
20260505220414 71 20 7.0 9.0 0.00 0.00 0.00 30 1010.8
20260505215911 70 50 2.0 3.0 0.00 0.00 0.00 32 1011.0
20260505215409 72 106 0.0 1.0 0.00 0.00 0.00 32 1010.7
20260505214907 71 132 3.0 3.0 0.00 0.00 0.00 34 1011.0
20260505214404 70 169 2.0 2.0 0.00 0.00 0.00 34 1011.1
20260505213901 70 26 2.0 2.0 0.00 0.00 0.00 32 1010.7
20260505213359 72 26 9.0 11.0 0.00 0.00 0.00 31 1011.0
20260505212855 70 19 9.0 11.0 0.00 0.00 0.00 32 1010.8
20260505212352 71 56 4.0 6.0 0.00 0.00 0.00 31 1011.2
20260505211848 70 159 6.0 7.0 0.00 0.00 0.00 33 1010.8
20260505211346 70 157 4.0 6.0 0.00 0.00 0.00 33 1011.2
20260505210842 70 184 5.0 7.0 0.00 0.00 0.00 33 1011.1
20260505210339 71 92 1.0 2.0 0.00 0.00 0.00 32 1011.3
20260505205836 70 0 5.0 7.0 0.00 0.00 0.00 33 1011.5
20260505205334 69 141 5.0 6.0 0.00 0.00 0.00 35 1011.2
20260505204831 70 129 0.0 1.0 0.00 0.00 0.00 36 1011.4